SCP
1 1 1 1 1 1 1 0 0 0 0 0 0 0 0 0 0 0 0 0 0 1 1 1 1 1 1 1 1 0 0 0 0 0 0 0 0 0 0 0 0 0 0
1 1 1 1 1 1 0 0 0 0 0 0 0 0 0 0 0 0 0 0 0 0 0 0 0 1 1 1 1 0 0 0 0 0 0 0 0 0 0 0 0 0 0
1 1 1 1 0 0 0 0 0 1 0 0 0 0 0 0 0 0 0 0 0 0 0 0 0 0 0 0 0 0 0 0 0 0 0 0 0 0 0 0 0 0 0
0 0 0 0 0 0 0 0 1 1 1 1 1 0 0 0 0 0 0 0 0 0 0 0 0 0 0 0 0 0 0 0 0 0 0 0 0 0 0 0 0 0 0
0 0 0 0 0 0 0 0 1 1 1 1 1 1 0 0 0 0 0 0 0 0 0 0 0 0 0 0 0 0 0 0 0 0 0 0 0 0 0 0 0 0 0
0 0 0 0 0 0 0 0 1 1 1 1 1 0 0 0 0 0 0 0 0 0 0 0 0 0 0 0 0 0 0 0 0 0 0 0 0 0 0 0 0 0 0
0 0 0 0 0 0 0 0 0 1 1 1 0 0 0 0 0 0 0 0 0 0 0 0 0 0 0 0 0 0 0 0 0 0 0 0 0 0 0 0 0 0 0
0 0 0 0 0 0 0 0 0 0 0 0 0 0 0 0 0 0 0 0 0 0 0 0 0 0 0 0 0 0 0 0 0 0 0 0 0 0 0 0 0 0 0
0 0 0 0 0 0 0 0 0 0 0 0 0 0 0 0 0 0 0 0 0 0 0 0 0 0 0 0 0 0 0 0 0 0 0 0 0 0 0 0 0 0 0
0 0 0 0 0 0 0 0 0 0 0 0 0 0 0 0 0 0 0 0 0 0 0 0 0 0 0 0 0 0 0 0 0 0 0 0 0 0 0 0 0 0 0
0 0 0 0 0 0 0 0 0 0 0 0 0 0 0 0 0 0 0 0 0 0 0 0 0 0 0 0 0 0 0 0 0 0 0 0 0 0 0 0 0 0 0
0 0 0 0 0 0 0 0 0 0 0 0 0 0 0 0 0 0 0 0 0 0 0 0 0 0 0 0 0 0 0 0 0 0 0 0 0 0 0 0 0 1 1
0 0 0 0 0 0 0 0 0 0 0 0 0 0 0 0 0 0 0 0 0 0 0 0 0 0 0 0 0 0 0 0 0 0 0 0 0 0 0 1 1 1 1
0 0 0 0 0 0 0 0 0 0 0 0 0 0 0 0 0 0 0 0 0 0 0 0 0 0 0 0 0 0 0 0 0 0 0 0 0 0 0 0 0 1 1
0 0 0 0 0 0 0 0 0 0 0 0 0 0 0 0 0 0 0 0 0 0 0 0 0 0 0 0 0 0 0 0 0 0 0 0 0 0 0 0 0 0 0
0 0 0 0 0 0 0 0 0 0 0 0 0 0 0 0 0 0 0 0 0 0 0 0 0 0 0 0 0 0 0 0 0 0 0 0 0 0 0 0 0 0 0
0 0 0 0 0 0 0 0 0 0 0 0 0 0 0 0 0 0 0 0 0 0 0 0 0 0 0 0 0 0 0 0 0 0 0 0 0 0 0 0 0 0 0
0 0 0 0 0 0 0 0 0 0 0 0 0 0 0 0 0 0 0 0 0 0 0 0 0 0 0 0 0 0 0 0 0 0 0 0 0 0 0 0 0 0 0
0 0 0 0 0 0 0 0 0 0 0 0 0 0 0 0 0 0 0 0 0 0 0 0 0 0 0 0 0 0 0 0 0 0 0 0 0 0 0 0 0 0 0
0 0 0 0 0 0 0 0 0 0 0 0 0 0 0 0 0 0 0 0 0 0 0 0 0 0 0 0 0 0 0 0 0 0 0 0 0 0 0 0 0 0 0
0 0 0 0 0 0 0 0 0 0 0 0 0 0 0 0 0 0 0 0 0 0 0 0 0 0 0 0 0 0 0 0 0 0 0 0 0 0 0 0 0 0 0
0 0 0 0 0 0 0 0 0 0 0 0 0 0 0 0 0 0 0 0 0 0 0 0 0 0 0 0 0 0 0 0 0 0 0 0 0 0 0 0 0 0 0
0 0 0 0 0 0 0 0 0 0 0 0 0 0 0 0 0 0 0 0 0 0 0 0 0 0 0 0 0 0 0 0 0 0 0 0 0 0 0 0 0 0 0
0 0 0 0 0 0 0 0 0 0 0 0 0 0 0 0 0 0 0 0 0 0 0 0 0 0 0 0 0 0 0 0 0 0 0 0 0 0 0 0 0 0 0
0 0 0 0 0 0 0 0 0 0 0 0 0 0 0 0 0 0 0 0 0 0 0 0 0 0 0 0 0 0 0 0 0 0 0 0 0 0 0 0 0 0 0
0 0 0 0 0 0 0 0 0 0 0 0 0 0 0 0 0 0 0 0 0 0 0 0 0 0 0 0 0 0 0 0 0 0 0 0 0 0 0 0 0 0 0
Wind_Speed
5 4 4 4 4 4 4 4 4 4 4 4 4 4 4 4 4 4 3 3 4 4 4 4 4 4 3 2 2 1 2 2 3 2 2 2 2 3 3 3 3 4 4
5 4 4 4 4 4 4 4 4 4 4 4 4 4 5 5 5 5 5 5 5 5 5 5 5 4 4 3 2 3 2 2 3 4 2 2 2 2 2 2 3 4 3
5 5 4 4 4 4 4 3 4 4 4 4 4 5 5 5 6 6 6 5 5 5 5 5 5 5 5 3 3 3 2 3 3 3 3 1 1 1 2 2 3 2 3
4 4 4 4 3 3 3 3 4 4 4 4 5 5 5 6 7 7 6 5 5 5 5 5 5 5 4 3 3 3 3 3 3 3 3 2 2 1 2 2 2 1 1
4 4 4 4 3 3 3 4 4 4 5 4 5 5 6 6 8 8 5 6 5 5 5 6 6 7 7 4 3 3 3 2 2 3 3 3 2 2 1 1 2 1 1
4 4 4 3 3 3 3 4 4 5 5 5 5 6 7 7 10 11 7 4 4 5 5 4 5 7 8 7 7 5 3 2 2 2 3 3 3 2 1 1 2 1 0
4 4 4 3 3 3 4 4 4 4 4 5 5 6 6 7 11 11 11 5 4 5 5 4 5 6 6 4 4 4 5 5 4 3 4 3 3 1 1 1 1 0 0
4 4 4 3 4 4 4 4 3 3 3 3 4 5 4 6 9 10 10 4 4 5 5 6 6 6 7 5 3 5 5 4 3 3 3 3 2 1 1 0 1 1 1
4 4 4 4 4 4 4 4 3 3 2 3 3 4 4 5 8 10 10 2 3 4 5 6 6 6 9 7 4 4 4 3 4 5 4 2 1 1 1 1 1 0 1
4 4 4 4 4 4 4 3 2 2 2 3 3 3 3 4 6 9 9 3 3 2 3 5 9 8 9 8 4 4 4 3 2 2 2 1 2 2 1 0 1 1 1
4 4 4 4 3 4 3 2 1 2 3 3 2 2 2 3 4 6 8 4 3 2 2 3 4 7 8 8 5 4 3 2 1 0 1 1 1 1 1 1 0 0 1
5 5 4 3 3 4 2 2 1 2 2 1 1 1 1 2 2 3 5 5 4 3 3 3 3 4 5 5 4 4 5 4 1 1 0 1 1 0 1 1 2 2 2
5 4 3 3 3 2 1 1 1 1 1 1 1 1 2 2 2 1 2 4 5 3 3 3 2 2 3 2 3 4 3 2 1 0 0 0 1 1 2 2 3 3 4
5 4 3 3 3 2 1 1 1 1 1 0 0 0 1 2 2 1 1 1 1 1 1 2 4 5 4 3 3 3 2 1 1 1 1 1 1 1 2 2 2 2 2
4 3 3 3 3 3 2 2 2 3 3 2 3 2 2 2 2 3 3 3 3 3 4 3 3 3 3 3 3 2 2 2 1 1 2 2 2 2 2 2 2 2 2
3 3 2 2 3 3 3 2 2 1 2 2 2 2 2 3 2 2 3 4 4 5 4 4 3 2 2 1 2 2 2 1 1 1 1 2 2 2 2 2 2 2 2
3 2 2 3 3 3 3 4 3 3 2 2 2 1 1 2 2 3 4 6 7 4 3 4 3 2 2 1 1 1 1 1 1 1 2 2 2 2 3 3 3 2 2
4 3 2 2 3 3 3 3 4 4 4 4 5 7 6 6 6 6 4 4 5 5 5 5 3 3 2 1 1 1 1 1 2 2 2 2 2 2 3 3 3 3 3
3 3 3 2 3 3 3 4 3 3 3 3 3 5 8 8 8 8 4 4 6 5 4 3 3 3 2 2 2 2 2 2 1 1 2 2 2 3 3 3 3 4 4
3 3 3 3 3 3 4 3 3 3 3 3 4 5 5 5 5 6 6 6 7 6 5 3 2 3 2 3 3 2 2 2 3 2 3 2 2 3 3 4 4 4 4
5 5 6 6 5 4 4 3 3 3 3 3 4 4 6 5 6 6 6 7 6 5 4 3 3 3 3 3 2 2 3 2 2 2 2 2 2 3 3 4 4 4 5
4 4 5 5 4 4 4 4 4 4 4 4 3 5 8 6 5 5 4 4 4 4 3 3 4 4 3 2 2 2 2 2 2 2 2 3 3 3 4 4 4 4 5
5 5 5 5 5 4 5 5 5 5 5 5 5 4 5 5 5 4 4 3 3 3 3 3 4 4 3 2 2 2 3 2 2 2 2 3 3 4 4 4 6 7 6
6 6 6 5 5 6 6 6 6 6 6 6 5 5 5 5 5 5 4 3 3 3 4 4 4 5 6 4 3 3 2 2 2 2 3 4 4 4 5 5 6 8 7
7 7 7 6 6 6 6 6 6 6 6 6 5 5 5 5 5 5 4 4 5 5 6 5 4 5 7 7 6 4 3 3 3 3 3 4 5 6 6 8 7 8 8
8 8 7 6 6 7 7 7 7 6 6 6 6 5 5 5 5 5 4 4 5 5 5 5 6 8 8 7 7 6 6 6 6 6 5 5 6 6 7 7 10 9 10
Wind_Direction
80 69 63 59 52 52 52 50 41 29 26 28 29 31 30 29 24 18 26 32 34 30 27 35 31 25 18 18 34 56 69 92 121 115 99 100 82 83 89 96 102 92 87
92 84 68 64 56 52 51 47 42 34 27 28 34 34 36 36 28 27 31 36 38 34 34 35 29 32 30 27 41 56 75 93 122 128 114 101 92 113 109 107 105 103 101
101 93 81 76 70 58 50 47 44 35 29 29 36 37 38 35 30 30 33 36 40 40 42 43 37 37 37 38 50 60 71 89 107 124 119 113 109 133 122 105 100 99 121
107 106 99 89 78 66 54 49 44 37 37 32 31 38 41 43 34 28 27 41 47 48 53 54 48 45 45 43 58 62 81 92 111 120 122 119 105 126 121 119 105 107 113
110 109 104 98 86 77 64 56 45 34 41 39 37 42 42 46 29 18 20 44 45 50 57 62 66 64 57 52 68 71 84 99 117 123 124 118 119 129 146 164 127 135 127
117 112 105 102 93 79 76 66 53 42 39 41 42 51 48 39 18 19 20 23 39 46 49 54 79 69 64 63 71 75 81 100 110 110 110 115 108 104 104 123 119 115 113
118 111 109 104 91 77 76 73 61 50 48 47 50 60 59 37 21 16 12 9 42 47 44 40 50 55 47 47 73 82 73 67 75 97 105 99 105 91 67 66 89 79 196
118 114 112 106 96 85 80 74 69 65 58 51 57 61 62 42 23 16 2 19 50 56 54 50 52 44 30 24 54 72 75 63 69 90 94 95 96 71 15 287 194 189 219
125 114 106 97 93 88 81 73 72 75 70 62 67 66 61 48 25 18 8 21 56 59 59 51 46 49 25 32 50 66 77 85 86 90 96 102 91 24 12 19 351 53 253
112 103 90 86 88 89 86 81 84 91 90 80 66 62 62 56 29 23 13 13 49 67 86 81 57 45 33 32 41 53 62 54 71 92 110 184 202 209 244 289 324 346 339
107 101 92 87 91 97 94 87 88 93 83 80 76 68 71 65 54 32 27 19 9 25 68 77 56 37 36 29 32 49 40 351 341 179 167 174 189 190 194 197 281 13 330
109 107 105 96 87 90 95 99 108 122 121 123 130 135 113 103 66 43 29 23 6 14 39 66 64 25 20 10 19 6 351 341 309 306 118 119 129 180 211 219 235 243 234
112 114 115 104 93 92 103 129 153 186 175 178 174 152 140 136 131 74 5 3 7 15 24 20 354 316 322 323 293 304 318 313 304 344 4 196 197 218 238 239 244 243 250
124 125 128 131 126 113 69 54 60 31 21 325 193 143 123 104 86 49 350 32 340 352 332 297 277 273 270 276 275 261 249 267 316 309 292 273 255 235 234 240 249 248 250
134 139 140 139 126 117 92 43 42 57 48 24 9 13 47 69 52 36 13 10 3 10 331 285 261 249 229 220 228 225 219 211 212 259 282 285 281 276 264 254 257 276 277
160 179 179 171 170 173 164 145 74 134 138 110 76 48 54 94 122 38 18 349 340 343 324 287 276 266 254 227 228 219 205 210 233 252 270 279 289 289 285 280 270 267 279
183 192 205 194 188 199 191 186 178 192 226 244 243 237 214 238 269 294 318 324 308 304 279 275 273 270 262 250 250 257 227 190 215 270 274 275 279 282 282 280 282 284 291
197 195 217 213 206 208 219 223 197 188 189 204 220 225 229 240 255 270 298 316 281 249 245 255 259 262 263 263 266 270 264 227 216 248 265 276 282 290 296 295 293 296 296
209 200 210 213 221 223 233 238 224 206 199 191 184 199 219 232 249 258 256 255 269 271 257 252 252 256 254 243 242 239 245 254 251 266 277 278 282 285 289 294 295 297 287
208 222 237 239 240 237 245 248 233 215 209 206 207 202 184 202 226 223 215 233 248 260 263 262 261 259 252 246 238 230 227 232 232 235 247 253 262 271 283 287 289 292 285
210 203 216 239 242 250 260 260 255 247 237 235 232 201 183 212 231 234 221 218 233 245 253 263 265 260 254 250 250 249 253 250 241 245 264 265 269 272 272 275 278 282 287
227 217 218 233 237 240 256 262 259 256 251 246 226 198 200 227 249 257 248 230 226 227 238 254 267 272 273 273 278 270 268 270 266 262 271 277 275 273 276 281 285 286 286
239 235 230 240 249 240 246 250 252 255 257 258 253 230 214 230 245 249 249 245 238 232 236 242 254 266 270 270 268 273 277 281 286 291 286 288 291 291 289 288 291 292 291
244 246 243 242 244 249 252 250 249 251 253 256 258 253 236 230 243 247 246 244 240 235 237 243 252 259 264 262 256 260 259 264 282 290 295 293 291 290 291 289 289 292 292
245 246 248 248 250 253 256 258 258 257 260 261 261 259 255 246 241 240 238 238 242 241 241 241 244 250 256 258 254 245 235 232 238 259 271 274 279 282 284 286 286 287 287
244 246 247 250 251 253 256 260 264 264 262 262 263 264 264 262 256 249 243 242 243 245 246 244 246 250 250 250 249 238 227 224 226 231 244 258 266 271 278 281 286 287 287